Hourly Data Report for February 14, 2002

SHERBROOKE A
QUEBEC

45°26'00.000" N
71°41'00.000" W
241.40 m
7028124
71610
YSC

Download Data

Hourly Data (February 2002)
Hourly Data Report for February 14, 2002
TIME
LST
Temp Definition
°C
Dew Point Definition
°C
Rel Hum Definition
%
Precip. Amount Definition
mm

Wind Dir Definition
10's deg

Wind Spd Definition
km/h
Visibility Definition
km
Stn Press Definition
kPa
Hmdx Definition


Wind Chill Definition


Weather Definition


00:00 -24.9 -29.4 66   10 6 15.0 99.42   -31  
01:00 -25.6 -30.5 63   11 6 15.0 99.42   -31  
02:00 -26.4 -30.8 66   7 6 15.0 99.45   -32  
03:00 -25.8 -30.3 66   10 4 15.0 99.45   -30  
04:00 -26.7 -31.1 66   9 4 15.0 99.42   -31  
05:00 -26.5 -30.9 66   7 4 15.0 99.42   -31  
06:00 -26.6 -31.1 66   9 6 15.0 99.37   -33  
07:00 -24.4 -28.3 70   7 4 15.0 99.33   -28  
08:00 -20.5 -23.8 75   6 4 24.1 99.31   -24 Mostly Cloudy
09:00 -14.9 -21.0 60   6 4 24.1 99.23   -18 Mostly Cloudy
10:00 -11.4 -16.1 68   21 4 19.3 99.17   -14 Snow
11:00 -7.1 -11.7 70   21 19 19.3 99.09   -14 Snow
12:00 -6.2 -9.4 78   20 22 3.2 99.01   -13 Snow
13:00 -6.3 -8.8 82   19 15 19.3 99.00   -12 Snow
14:00 -5.2 -7.8 82   20 13 24.1 98.93   -10 Snow
15:00 -4.1 -9.6 65   21 11 24.1 98.92   -9 Snow
16:00 -3.2 -7.3 73   21 9 24.1 98.91   -7 Snow
17:00 -3.0 -6.7 76   22 4 24.1 98.88   -5 Snow
18:00 -4.5 LegendMM LegendMM   12 6 15.0 98.86   -7  
19:00 -3.9 LegendMM LegendMM   16 7 15.0 98.83   -7  
20:00 -4.3 LegendMM LegendMM   20 6 15.0 98.83   -7  
21:00 -3.2 LegendMM LegendMM   21 6 15.0 98.83   -6  
22:00 -3.0 LegendMM LegendMM   21 6 15.0 98.80   -5  
23:00 -2.0 LegendMM LegendMM   20 6 15.0 98.76   -4  

Notes on Data Quality.

Legend

  • E = Estimated
  • M = Missing
  • NA = Not Available*
  • [empty] = Indicates an unobserved value
Date modified: